TimeEST,TemperatureF,Dew PointF,Humidity,Sea Level PressureIn,VisibilityMPH,Wind Direction,Wind SpeedMPH,Gust SpeedMPH,PrecipitationIn,Events,Conditions,WindDirDegrees,DateUTC
12:53 AM,46.9,44.1,90,30.23,10.0,Calm,Calm,-,N/A,,Clear,0,2012-11-23 05:53:00
1:53 AM,45.0,42.1,90,30.22,10.0,Calm,Calm,-,N/A,,Clear,0,2012-11-23 06:53:00
2:53 AM,46.0,43.0,89,30.22,9.0,Calm,Calm,-,N/A,,Clear,0,2012-11-23 07:53:00
3:53 AM,46.9,44.1,90,30.22,9.0,NW,3.5,-,N/A,,Clear,320,2012-11-23 08:53:00
4:53 AM,48.9,46.0,90,30.23,8.0,NW,4.6,-,N/A,,Clear,310,2012-11-23 09:53:00
5:53 AM,46.9,44.1,90,30.24,8.0,Calm,Calm,-,N/A,,Clear,0,2012-11-23 10:53:00
6:53 AM,45.0,42.1,90,30.25,8.0,WNW,3.5,-,N/A,,Clear,290,2012-11-23 11:53:00
7:53 AM,46.0,43.0,89,30.26,6.0,Calm,Calm,-,N/A,,Clear,0,2012-11-23 12:53:00
8:53 AM,55.0,50.0,83,30.28,8.0,Calm,Calm,-,N/A,,Clear,0,2012-11-23 13:53:00
9:53 AM,63.0,51.1,65,30.28,10.0,NW,9.2,-,N/A,,Clear,310,2012-11-23 14:53:00
10:53 AM,68.0,50.0,52,30.27,10.0,WNW,6.9,-,N/A,,Clear,290,2012-11-23 15:53:00
11:53 AM,71.1,46.9,42,30.25,10.0,NW,11.5,-,N/A,,Partly Cloudy,310,2012-11-23 16:53:00
12:53 PM,73.0,46.9,39,30.22,10.0,West,9.2,-,N/A,,Clear,270,2012-11-23 17:53:00
1:53 PM,73.0,46.0,38,30.18,8.0,WNW,9.2,-,N/A,,Clear,290,2012-11-23 18:53:00
2:53 PM,73.0,46.9,39,30.15,9.0,SW,9.2,-,N/A,,Clear,220,2012-11-23 19:53:00
3:53 PM,71.1,50.0,47,30.14,9.0,SW,12.7,-,N/A,,Clear,220,2012-11-23 20:53:00
4:53 PM,69.1,50.0,51,30.14,8.0,SW,10.4,-,N/A,,Clear,220,2012-11-23 21:53:00
5:53 PM,63.0,52.0,67,30.14,8.0,WSW,5.8,-,N/A,,Clear,240,2012-11-23 22:53:00
6:53 PM,59.0,52.0,78,30.16,10.0,Calm,Calm,-,N/A,,Clear,0,2012-11-23 23:53:00
7:53 PM,55.0,51.1,86,30.16,9.0,Calm,Calm,-,N/A,,Clear,0,2012-11-24 00:53:00
8:53 PM,53.1,50.0,89,30.15,8.0,Calm,Calm,-,N/A,,Clear,0,2012-11-24 01:53:00
9:53 PM,54.0,51.1,90,30.15,9.0,Calm,Calm,-,N/A,,Clear,0,2012-11-24 02:53:00
10:53 PM,55.0,51.1,86,30.15,8.0,West,3.5,-,N/A,,Clear,260,2012-11-24 03:53:00
11:53 PM,60.1,54.0,80,30.15,9.0,WNW,9.2,-,N/A,,Clear,290,2012-11-24 04:53:00